Wind_Speed
7 9 11 11 12 13 12 12 14 17 16 16 17 18 4 6 7 9 10 15 8 8 6 3 3 1 2 7 5 5 6 6 6 7 8 8 8 5 5 7 8 8 6
10 9 9 9 10 12 13 14 14 13 13 14 13 13 15 14 13 17 11 13 11 4 6 7 7 6 3 3 5 5 7 8 9 9 10 9 9 6 6 8 9 9 9
10 11 10 11 10 9 10 11 12 11 11 11 13 14 16 20 17 17 20 21 13 11 7 7 7 9 9 7 5 7 8 8 9 11 10 10 11 10 10 10 10 10 9
10 10 12 12 13 14 12 12 12 12 11 11 12 15 18 18 16 15 19 21 25 10 6 9 8 3 9 10 8 8 9 8 9 10 10 10 11 10 10 10 10 12 12
9 11 11 11 12 14 16 14 12 13 12 12 12 13 14 14 15 16 15 22 21 14 7 10 6 1 2 9 11 11 11 10 9 11 12 11 9 10 11 11 12 12 12
10 10 11 12 12 10 11 13 13 11 12 13 10 11 13 14 17 16 16 15 18 18 15 6 3 4 6 6 14 13 13 11 11 11 12 13 12 10 10 10 11 13 13
8 8 10 12 13 14 14 12 12 12 11 14 13 11 10 14 15 18 15 14 14 10 8 9 8 7 10 9 12 17 14 12 12 12 13 12 11 12 12 10 12 12 12
16 15 13 12 12 13 15 16 15 13 12 13 14 13 11 13 15 16 16 11 8 6 6 4 7 8 10 12 11 14 18 16 15 12 12 12 12 13 12 12 12 12 12
17 18 18 18 17 13 10 12 16 15 15 14 15 16 15 13 14 17 15 13 10 9 9 9 10 9 11 9 10 11 17 17 16 15 15 15 14 14 14 14 13 12 11
16 17 19 18 18 17 17 14 13 16 18 19 17 18 18 16 13 17 19 16 13 11 12 10 13 13 13 11 11 11 10 16 18 17 18 19 18 18 18 17 16 13 12
18 17 17 22 25 25 24 23 19 18 19 20 21 21 20 21 20 20 21 22 19 15 16 16 17 19 15 16 16 14 16 17 16 19 21 23 22 22 23 21 19 17 14
19 17 22 24 26 28 27 24 25 24 24 23 22 22 23 23 25 23 23 24 23 24 21 22 21 20 17 19 19 20 18 20 21 24 26 25 25 26 25 26 22 20 16
20 22 20 23 27 28 31 32 30 29 31 32 30 25 25 26 25 25 24 26 27 27 26 25 25 23 25 24 24 23 24 22 23 30 28 27 28 29 27 28 27 24 20
22 30 33 29 21 26 28 31 34 33 32 32 32 32 30 29 28 27 26 25 25 26 29 32 29 29 27 29 27 28 29 28 28 30 24 29 31 25 28 25 29 27 24
25 25 25 29 23 26 25 29 32 35 35 35 34 35 33 33 34 32 30 25 25 25 25 29 35 34 33 28 27 27 28 30 29 31 28 24 28 26 25 27 28 28 26
32 32 29 26 34 28 28 29 32 34 37 37 39 37 37 37 44 26 32 28 29 31 29 30 34 38 38 31 28 28 29 31 33 34 29 27 30 30 28 27 24 24 22
35 36 36 34 36 32 35 38 36 37 38 37 39 41 37 39 32 32 30 29 34 36 37 35 35 36 28 31 30 30 30 32 34 33 26 24 29 32 31 32 29 25 25
40 40 39 39 40 41 46 42 41 41 36 36 37 40 35 34 33 30 32 30 36 39 41 36 31 26 26 30 32 34 33 34 34 34 32 31 26 36 37 35 26 21 23
44 42 44 43 43 44 44 45 41 40 40 35 34 36 37 35 32 30 28 27 32 38 37 27 25 22 24 28 31 35 35 33 30 33 28 27 25 28 31 31 27 22 24
47 47 47 46 46 47 47 46 43 40 39 38 36 36 36 33 31 28 25 26 28 27 22 15 17 22 21 27 25 30 21 32 31 28 35 29 29 28 27 26 26 24 29
52 50 50 49 49 49 47 46 45 41 40 41 36 35 35 35 33 31 30 26 24 20 17 14 17 20 25 24 26 17 23 23 22 20 22 22 22 30 32 35 36 36 36
53 54 54 54 52 50 50 46 44 41 41 40 37 36 37 37 36 35 32 29 25 23 22 23 14 16 17 16 14 16 10 14 20 25 19 20 26 29 33 33 35 37 35
55 56 56 55 53 49 49 48 42 41 41 39 40 38 38 38 38 37 36 33 26 26 24 24 16 15 16 15 14 13 11 12 12 23 15 17 20 29 30 31 34 36 34
58 57 53 53 49 48 49 47 41 40 42 39 41 40 39 38 40 41 38 36 33 31 31 29 26 16 15 15 14 12 12 12 10 11 15 17 18 19 21 24 27 29 31
55 51 47 46 47 44 42 42 40 42 41 38 39 39 37 38 40 39 38 36 34 33 31 31 23 20 18 15 15 12 12 13 12 12 14 16 18 15 14 16 18 18 19
48 45 42 41 38 37 40 40 42 42 40 39 38 38 36 41 40 39 38 37 37 34 31 34 27 21 17 18 15 14 12 14 15 16 17 19 19 16 17 19 20 22 22
Wind_Direction
5 356 2 2 355 355 357 1 3 9 4 359 5 9 313 327 338 310 301 297 273 247 191 213 159 72 135 137 151 138 153 169 160 152 147 155 157 171 187 183 182 186 178
341 336 335 336 344 346 347 349 358 3 354 343 355 354 339 348 342 333 319 299 300 324 207 180 183 167 176 147 151 158 166 176 169 161 154 159 159 171 191 176 174 174 179
323 321 324 324 323 321 329 338 343 346 343 340 340 327 329 346 348 341 323 318 270 221 227 205 194 185 182 173 180 173 174 190 189 178 182 175 175 171 176 180 178 170 175
337 329 330 325 321 321 325 316 326 325 329 336 334 332 334 343 337 323 326 330 324 278 289 218 207 198 199 179 193 198 184 195 210 196 188 187 180 176 173 177 179 182 177
353 350 344 342 336 333 329 335 327 329 320 321 335 327 327 334 325 328 325 348 341 340 336 305 63 321 253 196 197 211 217 202 214 206 193 188 201 188 185 184 186 190 185
3 1 354 344 336 335 334 331 335 335 326 322 327 316 322 327 314 323 334 352 354 338 354 300 0 37 318 272 217 216 219 218 223 216 208 198 201 207 197 198 199 203 200
343 346 342 342 335 330 325 324 324 331 330 320 321 319 313 302 308 315 325 346 342 353 338 308 10 327 309 287 238 225 226 226 222 222 224 215 213 201 200 204 207 211 207
333 332 332 335 337 327 321 317 318 320 314 314 312 311 312 309 304 302 314 337 338 343 322 313 293 303 272 270 260 238 231 231 238 231 231 226 214 212 207 204 211 209 208
332 331 322 324 326 324 311 312 312 313 314 314 317 320 323 321 314 306 306 301 291 286 293 262 261 280 271 276 285 280 227 240 244 247 242 236 228 227 228 219 216 219 217
324 318 320 317 321 326 327 314 303 304 310 313 315 320 322 323 321 320 316 308 288 287 288 262 284 275 277 274 275 278 267 252 257 256 254 248 241 237 236 237 233 230 228
315 319 309 310 311 311 307 310 307 299 299 306 313 317 315 314 309 308 311 314 311 300 272 264 265 266 264 261 264 267 266 255 253 258 255 255 253 249 248 246 240 238 237
294 305 308 310 307 305 304 297 297 294 296 296 300 303 302 304 306 306 304 303 302 301 290 276 260 257 267 260 267 271 267 258 256 251 245 246 249 247 249 250 243 242 243
278 298 301 299 296 294 295 293 288 292 294 295 298 301 300 295 297 300 301 297 297 295 291 278 270 259 249 253 250 258 261 257 254 258 249 251 248 236 237 247 246 242 240
287 279 285 286 283 278 282 285 285 285 286 291 297 301 302 292 290 294 297 297 294 291 291 292 285 269 257 245 239 245 260 262 258 255 263 263 262 242 245 239 243 239 236
283 285 290 287 278 271 265 268 277 283 287 289 289 291 296 293 294 294 298 293 291 290 289 293 286 280 273 257 248 244 249 246 260 256 265 265 254 249 257 250 243 238 238
300 301 300 290 284 288 280 274 271 275 277 282 283 284 288 290 284 278 291 291 298 300 297 293 287 274 270 260 251 252 250 249 254 259 262 262 250 247 244 245 238 234 241
296 297 297 303 306 299 295 297 292 282 274 275 277 280 283 281 272 293 288 288 299 300 301 297 288 284 252 249 253 258 254 250 250 257 242 249 255 238 242 242 227 236 246
290 296 300 299 299 300 295 292 290 289 282 272 272 275 275 281 297 290 286 292 299 298 300 293 281 266 239 243 255 261 256 250 249 247 248 246 252 237 242 242 228 241 246
293 292 294 295 292 288 286 287 285 281 282 279 275 271 274 280 285 286 288 292 302 306 307 276 260 256 247 249 256 260 257 249 250 249 242 240 236 232 233 229 226 234 249
291 288 289 289 290 290 289 287 285 281 277 276 279 275 271 276 278 281 283 294 298 321 327 279 270 269 264 257 263 260 263 235 239 234 244 231 227 225 228 231 228 234 236
288 287 287 287 287 286 285 285 285 283 277 277 277 279 275 272 273 274 277 288 288 295 300 303 277 280 271 265 247 271 275 276 277 226 219 214 222 222 219 225 229 232 241
291 290 290 289 288 286 286 284 281 280 278 274 272 272 273 271 267 271 277 282 279 279 279 274 291 302 275 264 261 259 260 251 249 228 224 237 233 226 229 234 241 250 248
291 290 290 290 287 285 281 280 277 276 277 275 272 271 269 267 269 269 274 278 277 269 272 271 274 284 287 284 268 259 251 259 263 262 264 272 250 240 240 246 246 250 255
291 294 291 288 287 284 279 273 271 272 277 276 273 270 266 266 267 271 274 277 276 268 267 270 274 263 275 280 274 267 258 250 242 244 229 242 247 247 248 251 250 253 260
289 287 286 286 287 280 273 271 275 274 278 277 272 269 261 262 264 267 269 271 272 268 265 266 269 267 264 267 271 267 270 264 249 242 246 247 249 243 246 240 241 240 246
288 283 284 286 286 285 280 276 277 278 278 273 269 267 259 262 265 267 265 267 268 266 264 265 267 263 264 260 268 277 261 262 257 247 242 244 246 243 242 247 252 254 254
Height
5938 5937 5936 5936 5936 5935 5934 5932 5931 5929 5927 5924 5922 5921 5917 5917 5910 5910 5909 5910 5907 5906 5905 5907 5908 5910 5909 5904 5906 5907 5907 5908 5908 5908 5907 5909 5909 5912 5913 5912 5911 5912 5912
5937 5938 5938 5937 5935 5933 5932 5932 5931 5930 5928 5924 5921 5919 5919 5917 5916 5911 5908 5911 5909 5907 5905 5903 5905 5906 5909 5908 5905 5908 5908 5907 5907 5907 5906 5907 5908 5909 5912 5911 5911 5911 5911
5937 5937 5936 5935 5934 5933 5931 5931 5930 5930 5927 5924 5921 5920 5920 5917 5915 5914 5909 5908 5908 5906 5904 5900 5902 5901 5903 5906 5906 5906 5907 5909 5908 5906 5907 5906 5907 5907 5909 5911 5910 5910 5910
5936 5935 5933 5933 5932 5931 5929 5928 5927 5927 5925 5923 5921 5919 5917 5916 5917 5914 5911 5911 5908 5906 5905 5903 5901 5904 5902 5902 5905 5908 5906 5907 5909 5908 5906 5907 5907 5907 5907 5909 5911 5910 5910
5936 5934 5933 5932 5930 5929 5927 5926 5926 5924 5921 5921 5919 5918 5916 5914 5911 5910 5909 5906 5905 5904 5904 5904 5901 5903 5903 5901 5903 5906 5907 5904 5907 5907 5906 5905 5907 5908 5907 5907 5909 5910 5909
5935 5934 5932 5931 5929 5927 5924 5923 5922 5921 5920 5919 5919 5917 5914 5912 5907 5907 5905 5907 5905 5901 5903 5903 5900 5899 5901 5902 5901 5903 5904 5903 5904 5906 5905 5903 5904 5906 5906 5907 5907 5908 5908
5934 5932 5930 5928 5927 5925 5923 5921 5920 5918 5917 5915 5915 5915 5913 5910 5906 5903 5906 5906 5904 5900 5896 5896 5897 5898 5900 5900 5900 5900 5902 5902 5902 5903 5904 5903 5903 5903 5904 5905 5906 5906 5907
5934 5932 5929 5927 5924 5923 5922 5920 5918 5917 5916 5914 5913 5913 5912 5911 5906 5904 5901 5903 5905 5903 5902 5898 5897 5897 5899 5899 5899 5897 5900 5900 5902 5900 5901 5902 5902 5902 5902 5903 5904 5904 5905
5933 5930 5929 5927 5925 5922 5919 5917 5916 5916 5914 5913 5910 5909 5909 5908 5905 5901 5903 5902 5902 5900 5899 5897 5896 5894 5894 5895 5895 5894 5898 5899 5900 5900 5900 5900 5900 5900 5901 5902 5902 5902 5903
5934 5932 5929 5925 5924 5922 5919 5915 5912 5911 5909 5909 5908 5907 5905 5904 5903 5898 5895 5897 5897 5895 5892 5891 5890 5891 5892 5892 5892 5892 5894 5896 5897 5897 5898 5898 5897 5897 5898 5901 5900 5900 5900
5927 5926 5925 5925 5922 5919 5917 5915 5910 5907 5905 5903 5902 5901 5901 5899 5898 5897 5893 5890 5890 5890 5890 5889 5888 5889 5888 5888 5888 5887 5888 5890 5891 5892 5894 5894 5894 5893 5894 5896 5896 5897 5897
5926 5922 5921 5918 5917 5915 5912 5910 5907 5905 5902 5899 5897 5896 5894 5893 5892 5891 5890 5888 5885 5885 5883 5881 5882 5882 5882 5882 5881 5882 5883 5883 5884 5885 5885 5885 5886 5887 5889 5892 5891 5892 5892
5923 5921 5919 5916 5913 5910 5908 5906 5904 5900 5897 5894 5892 5890 5889 5886 5885 5885 5884 5882 5880 5878 5878 5876 5874 5874 5875 5875 5875 5875 5875 5875 5876 5877 5877 5877 5877 5879 5881 5885 5886 5886 5887
5916 5914 5913 5911 5909 5906 5904 5901 5898 5895 5892 5889 5886 5884 5883 5881 5879 5877 5876 5875 5874 5871 5870 5867 5866 5866 5867 5869 5867 5867 5865 5866 5867 5867 5868 5869 5871 5873 5875 5876 5879 5880 5880
5910 5908 5905 5901 5902 5900 5897 5895 5894 5890 5885 5881 5879 5876 5875 5872 5871 5869 5867 5866 5864 5865 5864 5861 5858 5855 5854 5857 5857 5858 5858 5858 5858 5858 5859 5860 5863 5864 5867 5869 5871 5873 5874
5901 5897 5896 5894 5893 5890 5888 5886 5885 5882 5877 5875 5871 5868 5866 5864 5857 5851 5859 5857 5856 5855 5855 5853 5848 5846 5844 5845 5846 5847 5848 5848 5849 5850 5851 5849 5850 5855 5858 5862 5864 5866 5867
5892 5889 5886 5883 5881 5878 5877 5875 5874 5872 5869 5866 5862 5859 5858 5853 5836 5847 5851 5849 5847 5844 5843 5842 5837 5833 5832 5835 5836 5836 5837 5838 5839 5840 5842 5843 5845 5846 5850 5853 5855 5857 5859
5883 5879 5876 5874 5872 5868 5865 5863 5862 5860 5859 5857 5853 5850 5850 5847 5845 5845 5843 5840 5838 5834 5831 5829 5826 5825 5826 5826 5827 5827 5827 5829 5830 5832 5834 5835 5835 5839 5842 5846 5845 5849 5852
5873 5869 5866 5864 5862 5860 5856 5852 5851 5848 5846 5845 5843 5842 5840 5839 5838 5837 5835 5834 5831 5825 5817 5815 5816 5817 5819 5820 5821 5821 5819 5818 5820 5821 5823 5825 5828 5831 5835 5837 5839 5842 5846
5862 5859 5856 5853 5849 5846 5842 5840 5837 5835 5834 5832 5831 5831 5831 5829 5827 5828 5828 5826 5825 5819 5814 5810 5809 5810 5812 5812 5812 5812 5808 5808 5808 5810 5813 5816 5818 5823 5827 5830 5833 5836 5837
5848 5845 5842 5839 5836 5834 5831 5827 5824 5822 5820 5819 5819 5818 5818 5818 5818 5819 5821 5819 5817 5815 5813 5809 5808 5805 5804 5805 5804 5802 5800 5800 5802 5800 5803 5808 5811 5816 5819 5822 5825 5827 5829
5834 5830 5827 5824 5822 5818 5815 5813 5811 5810 5808 5806 5807 5807 5806 5807 5808 5810 5811 5809 5809 5808 5808 5807 5802 5799 5797 5797 5796 5796 5795 5796 5795 5796 5800 5803 5805 5807 5810 5813 5816 5818 5820
5819 5815 5812 5808 5805 5803 5800 5798 5798 5796 5795 5795 5794 5796 5795 5796 5797 5798 5801 5799 5799 5800 5801 5800 5797 5794 5792 5790 5791 5791 5790 5789 5791 5790 5793 5797 5799 5800 5802 5804 5807 5809 5810
5804 5801 5797 5793 5790 5790 5786 5784 5784 5784 5782 5784 5782 5783 5782 5783 5784 5786 5788 5788 5789 5790 5792 5792 5791 5789 5787 5785 5784 5785 5784 5785 5785 5786 5786 5790 5792 5791 5794 5796 5798 5800 5802
5788 5785 5781 5779 5776 5775 5772 5771 5771 5770 5771 5770 5770 5769 5770 5771 5772 5775 5775 5777 5778 5780 5782 5783 5783 5783 5783 5781 5780 5778 5779 5780 5779 5781 5781 5783 5785 5785 5788 5789 5791 5792 5793
5772 5770 5768 5765 5763 5762 5760 5759 5757 5758 5759 5758 5757 5757 5758 5759 5760 5763 5764 5765 5766 5768 5771 5773 5774 5775 5775 5775 5775 5774 5773 5773 5775 5775 5775 5776 5777 5779 5781 5783 5784 5783 5782